www.pogodaiklimat.ru

Погода и климат >> Архив погоды >> Греция >> Каламата


ПОГОДА в Каламате

  • Прогноз погоды в Каламате
  • Монитор погоды в Каламате

АРХИВ ПОГОДЫ в Каламате

Время (UTC), дата Ветер
(напр.,м/с)
 
Видим.   Явления Облачность Т
(С)
Тd
(С)
f
(%)
Тe
(С)
Тes
(С)
Комфортность P
(гПа)
Po
(гПа)
Тmin
(С)
Tmax
(С)
R
(мм)
R24
(мм)
S
(см)
21 15.02 С 3
{10}
н/о н/о +8.6 -3.5 42 +7 +7 1021.0 1020.4
00 16.02
{7}
н/о н/о +6.8 -2.6 51 1021.1 1020.5
03 16.02
{9}
н/о н/о +8.7 -3.5 42 1021.2 1020.6
06 16.02 С 4
{10}
10 км 3/1 600 м
[Cu med, cong Ac lent]
+8.8 -3.5 42 +6 +7 1022.8 1021.8 +7.5 95
09 16.02 С 5
{12}
10 км 4/4 600 м
[Sc diur, vesp Ac lent]
+12.0 -2.3 37 +10 +13 1023.6 1022.6
12 16.02 СВ 6
{14}
10 км 5/3 600 м
[Cu med, cong Ac lent]
+12.0 -0.9 41 +10 +12 1023.5 1022.5
15 16.02 СВ 4
{11}
10 км 4/3 600 м
[Cu med, cong Ac lent]
+11.6 -1.4 40 +10 +10 1024.0 1023.0
18 16.02 С 3
{11}
10 км 1/1 600 м
[Cu hum]
+8.2 -0.8 53 +6 +6 1025.0 1024.0 +13.0
21 16.02 СЗ 4
{11}
н/о н/о +9.6 -2.3 43 +8 +8 1025.5 1025.0
00 17.02
{9}
н/о н/о +9.1 -1.7 47 1025.3 1024.7
03 17.02
{5}
н/о н/о +5.7 -1.7 59 1024.7 1024.1
06 17.02 СЗ 3
{8}
10 км 1/1 600 м
[Cu hum]
+5.6 -1.3 61 +3 +4 1025.8 1024.8 +4.9 92
09 17.02 ЮВ 2
{6}
10 км 1/1 600 м
[Cu hum]
+13.6 -2.2 33 +13 +21 1025.6 1024.6
12 17.02 ЮВ 4
{6}
10 км 1/1 600 м
[Cu hum]
+13.8 +0.5 40 +13 +18 1024.5 1023.5
15 17.02 ЮВ 4
{7}
10 км 1/1 600 м
[Cu hum]
+12.8 +0.8 44 +11 +12 1024.3 1023.3
18 17.02 штиль 0
{7}
10 км 3/1 600 м
[Cu hum Ac lent]
+6.8 +1.6 69 +6 +6 1025.2 1024.2 +14.0
21 17.02 СЗ 2
{4}
н/о н/о +3.4 +0.8 83 +1 +1 1026.0 1025.4
00 18.02
{4}
н/о н/о +2.5 +0.1 84 1025.5 1024.9
03 18.02
{4}
н/о н/о +1.5 0.0 90 1024.5 1023.9
06 18.02 штиль 0
{3}
3000 м дымка 1/0
[Ci fib]
+1.4 -0.3 88 0 +1 1025.2 1024.2 0.0 92
09 18.02 Ю 2
{4}
10 км ясно +13.2 +1.7 46 +13 +21 1025.0 1024.0
12 18.02 Ю 3
{5}
10 км ясно +14.8 +3.2 46 +14 +21 1023.8 1022.8
15 18.02 Ю 3
{5}
10 км ясно +14.0 +6.1 59 +13 +14 1023.1 1022.1
18 18.02 СЗ 2
{4}
10 км ясно +8.0 +5.3 83 +6 +6 1023.9 1022.9 +15.2
21 18.02 СЗ 2
{3}
н/о н/о +5.4 +3.8 89 +3 +3 1023.6 1023.0
00 19.02 СЗ 2
{3}
н/о в посл. час осадки н/о +3.6 +2.5 93 +1 +1 1023.9 1023.4 0.0
03 19.02 СЗ 2
{4}
н/о {осадки} н/о +3.7 +2.7 93 +1 +1 1022.9 1022.3
06 19.02 штиль 0
{3}
3000 м дымка ясно +3.8 +2.8 93 +3 +4 1023.4 1022.4 +3.1 94
09 19.02 штиль 0
{4}
8000 м дымка ясно +15.0 +7.4 60 +15 +26 опасность
простуды
1023.2 1022.2
12 19.02 ЮВ 3
{5}
10 км 1/1 600 м
[Cu med, cong]
+16.4 +7.1 54 +16 +22 1022.1 1021.1
15 19.02 Ю 2
{5}
10 км 1/1 600 м
[Cu hum]
+15.6 +8.2 61 +16 +16 1021.2 1020.2
18 19.02 СЗ 2
{6}
10 км 1/1 600 м
[Cu hum]
+10.8 +6.7 76 +10 +10 1022.0 1021.0 +17.1
21 19.02 СЗ 2
{4}
н/о н/о +7.6 +5.9 89 +5 +5 1022.1 1021.5
00 20.02 З 2
{4}
н/о в посл. час осадки н/о +6.7 +5.2 90 +4 +4 1021.8 1021.2 0.0
03 20.02 СЗ 3
{4}
н/о в посл. час осадки н/о +6.0 +4.6 91 +3 +3 1021.2 1020.7
06 20.02 З 2
{4}
4000 м дымка 1/1 600 м
[Cu hum]
+6.2 +4.8 91 +4 +4 1021.5 1020.5 +5.6 102
09 20.02 С 4
{7}
10 км 1/1 600 м
[Cu hum]
+15.2 +6.6 56 +14 +19 1022.1 1021.1
12 20.02 С 6
{9}
10 км 1/1 600 м
[Cu hum]
+17.6 +5.7 46 +17 +20 1020.0 1019.0
15 20.02 С 5
{9}
10 км 1/1 600 м
[Cu hum]
+16.0 +6.7 54 +15 +15 1019.6 1018.6
18 20.02 С 4
{8}
10 км 1/1 600 м
[Cu hum]
+11.6 +6.3 70 +10 +10 1021.3 1020.3 +17.6
21 20.02 СЗ 2
{5}
н/о н/о +8.5 +5.5 81 +7 +7 1022.1 1021.5
00 21.02 СЗ 2
{5}
н/о н/о +6.2 +3.6 83 +4 +4 1021.7 1021.1
03 21.02 С 1
{4}
н/о н/о +4.9 +3.2 89 +3 +3 1021.4 1020.8
06 21.02 штиль 0
{4}
4000 м дымка ясно +4.8 +3.1 89 +4 +5 1022.4 1021.4 0.0 104
09 21.02 В 2
{3}
10 км ясно +15.4 +4.9 50 +16 +25 1023.0 1022.0
12 21.02 Ю 4
{5}
10 км 1/1 600 м
[Cu hum Ci fib]
+16.2 +8.0 58 +16 +21 1022.2 1021.2
15 21.02 Ю 3
{6}
10 км 3/3 600 м
[Cu med, cong]
+15.4 +7.6 60 +15 +15 1022.3 1021.3
18 21.02 штиль 0
{4}
10 км 3/3 600 м
[Cu med, cong]
+9.6 +6.3 80 +9 +9 1023.0 1022.0 +16.6
21 21.02 С 1
{3}
н/о н/о +6.5 +4.7 88 +5 +5 1023.5 1022.9
00 22.02 СЗ 2
{3}
н/о {осадки} н/о +4.6 +3.4 92 +2 +2 1023.3 1022.7 0.0
03 22.02 С 1
{3}
н/о {осадки} н/о +3.7 +2.8 94 +2 +2 1022.1 1021.5
06 22.02 штиль 0
{3}
4000 м дымка 1/1 600 м
[Cu med, cong]
+3.6 +2.6 93 +2 +3 1021.6 1020.6 +3.4 102
09 22.02 штиль 0
{3}
10 км 3/3 600 м
[Cu med, cong]
+15.4 +7.5 59 +15 +23 1020.1 1019.1
12 22.02 ЮВ 3
{5}
10 км 8/6 600 м
[Cu Sc Ac und]
+15.8 +9.2 65 +15 +17 1017.5 1016.5
15 22.02 штиль 0
{7}
10 км в посл. час дождь {морось} 9/5 600 м
[Cu Sc Ac und]
+12.0 +9.4 84 +11 +12 1016.2 1015.2
18 22.02 штиль 0
{3}
10 км слаб. дождь 9/6 900 м
[Sc Ac und]
+10.6 +9.3 92 +10 +10 1016.2 1015.2 +16.0 2

 

Местоположение метеостанции Каламата (Греция): широта 37.07 долгота 22.02 высота над уровнем моря 8 м.

В архиве по умолчанию представлена погода в Каламате за последнюю неделю. Архивные данные за месяц целиком и за предыдущие месяцы, начиная с января 2011 года, Вы можете получить, выбрав интересующий диапазон дат из раскрывающегося списка и нажав кнопку "Ввод!".


*Определитесь, кто Вы:
робот инопланетянин человек

Внимание! Время в таблицах - всемирное. Для получения местного времени необходимо прибавить поправку, которая равна 2 ч.

Смотрите также архив погоды в соседних городах и на ближайших метеорологических станциях:

Погода в Метони (Греция) (39 км)
Погода в Триполисе (Греция) (61 км)
Погода в Андравиде (Греция) (115 км)
Погода на Китире (Греция) (125 км)
Погода в Элефисисе (Греция) (175 км)
Погода в Афинах (Греция) (177 км)
Погода в Кефалонии (Греция) (178 км)
Погода в Элефтериос Венизелос (Греция) (192 км)
Погода в Татое (Греция) (193 км)
Погода в Актионе (Греция) (204 км)

Пояснения к столбцам:

Ветер - указаны скорость ветра в м/с - средняя за 10 мин, порывы в срок и между сроками (в фигурных скобках) и направление, откуда дует ветер: С - северный, СВ - северо-восточный, В - восточный, ЮВ - юго-восточный, Ю - южный, ЮЗ - юго-западный, З - западный, СЗ - северо-западный.
Видимость - горизонтальная дальность видимости в метрах или километрах. При видимости от 1 до 10 км при отсутствии осадков обычно наблюдается дымка, при ухудшении видимости до 1 км и менее - туман. В сухую погоду видимость может ухудшаться дымом, пылью или мглою.
Явления - указаны атмосферные явления, наблюдавшиеся в срок или в последний час перед сроком; фигурными скобками обозначены явления, наблюдавшиеся между сроками (за 1-3 часа до срока); квадратными скобками обозначены град или гололедные отложения с указанием их диаметра в мм.
Облачность - указаны через наклонную черту общая и нижняя облачность в баллах и высота нижней границы облаков в метрах; квадратными скобками обозначены формы облаков: Ci - перистые, Cs - перисто-слоистые, Cc - перисто-кучевые, Ac - высококучевые, As - высокослоистые, Sc - слоисто-кучевые, Ns - слоисто-дождевые, Cu - кучевые, Cb - кучево-дождевые. Подробнее классификацию облаков см. в Атласе облаков (PDF).
T - Температура воздуха - температура, измеренная на высоте 2 м над землей.
Td - Температура точки росы - температура, при понижении до которой содержащийся в воздухе водяной пар достигнет насыщения.
f - Относительная влажность воздуха - влажноcть воздуха, измеренная на высоте 2 м над землей.
Te - Эффективная температура - температура, которую ощущает одетый по сезону человек в тени. Характеристика душности погоды. При расчете учитывается влияние влажности воздуха и скорости ветра на теплоощущения человека.
Tes - Эффективная температура на солнце - температура, которую ощущает человек, с поправкой на солнечный нагрев. Характеристика знойности погоды. Зависит от высоты солнца над горизонтом, облачности и скорости ветра. Ночью, в пасмурную погоду, а также при ветре 12 м/с и более поправка равна нулю.
P - Атмосферное давление - приведенное к уровню моря атмосферное давление.
Po - Атмосферное давление - измеренное на уровне метеостанции атмосферное давление.
Tmin - Минимальная температура - минимум температуры воздуха на высоте 2 м над землей.
Tmax - Максимальная температура - максимум температуры воздуха на высоте 2 м над землей.
R - Количество осадков - Количество выпавших осадков за период времени, мм. При наведении курсора мыши на число - период времени, за который выпало указанное количество осадков.
R24 - Количество осадков - Количество выпавших осадков за 24 часа, мм.
S - Снежный покров - Высота снежного покрова, см. При наведении курсора мыши на число - состояние снежного покрова и степень покрытия местности в баллах.